XE2OR-10 Weather Reports


time (UTC)temp
F
wind
direction
speed
knots
gust
knots
rain 1hr
in
rain 24hr
in
rain mn
in
humidity
%
barometer
mb
20260504003349 79 117 0.9 1.7 0.00 0.00 0.00 56 1020.3
20260504002848 79 164 0.0 0.0 0.00 0.00 0.00 56 1020.3
20260504002352 79 161 0.0 0.0 0.00 0.00 0.00 55 1020.1
20260504001848 79 131 3.5 5.2 0.00 0.00 0.00 55 1020.1
20260504001352 79 163 0.9 2.6 0.00 0.00 0.00 55 1019.9
20260504000848 80 150 3.5 5.2 0.00 0.00 0.00 55 1020.2
20260504000349 80 176 0.0 0.0 0.00 0.00 0.00 54 1020.2
20260503235848 80 159 2.6 3.5 0.00 0.00 0.00 54 1020.2
20260503235352 80 171 0.9 2.6 0.00 0.00 0.00 54 1020.3
20260503234848 80 122 0.9 1.7 0.00 0.00 0.00 54 1020.5
20260503234352 80 168 2.6 3.5 0.00 0.00 0.00 54 1020.4
20260503233848 80 64 3.5 5.2 0.00 0.00 0.00 53 1020.4
20260503233349 81 102 1.7 2.6 0.00 0.00 0.00 53 1020.1
20260503232849 82 214 0.9 2.6 0.00 0.00 0.00 52 1020.3
20260503232353 81 147 0.9 2.6 0.00 0.00 0.00 53 1020.2
20260503231849 83 179 0.9 2.6 0.00 0.00 0.00 51 1020.4
20260503231352 82 170 2.6 5.2 0.00 0.00 0.00 51 1020.3
20260503230849 82 156 0.9 1.7 0.00 0.00 0.00 52 1020.2
20260503230348 82 217 1.7 3.5 0.00 0.00 0.00 52 1020.5
20260503225849 81 29 0.9 2.6 0.00 0.00 0.00 53 1020.3
20260503225352 82 145 1.7 3.5 0.00 0.00 0.00 51 1020.3
20260503224849 82 200 1.7 2.6 0.00 0.00 0.00 52 1020.5
20260503224352 83 173 2.6 3.5 0.00 0.00 0.00 51 1020.8
20260503223849 82 193 0.9 1.7 0.00 0.00 0.00 52 1020.6
20260503223348 82 93 2.6 3.5 0.00 0.00 0.00 52 1020.8
20260503222849 82 71 1.7 3.5 0.00 0.00 0.00 52 1020.6
20260503222352 82 142 3.5 5.2 0.00 0.00 0.00 53 1020.5
20260503221849 82 110 0.9 1.7 0.00 0.00 0.00 51 1020.5
20260503221352 82 146 1.7 2.6 0.00 0.00 0.00 51 1020.4
20260503220849 82 164 1.7 2.6 0.00 0.00 0.00 52 1020.5
20260503220348 82 101 1.7 2.6 0.00 0.00 0.00 52 1020.6
20260503215849 82 143 0.0 0.0 0.00 0.00 0.00 51 1020.8
20260503215352 82 166 0.0 0.0 0.00 0.00 0.00 53 1020.8
20260503214849 82 175 1.7 2.6 0.00 0.00 0.00 51 1020.9
20260503214352 84 135 3.5 5.2 0.00 0.00 0.00 51 1021.4
20260503213849 83 138 3.5 5.2 0.00 0.00 0.00 51 1021.1
20260503213349 83 200 1.7 2.6 0.00 0.00 0.00 51 1021.4
20260503212849 81 123 2.6 3.5 0.00 0.00 0.00 52 1021.5
20260503212352 82 166 0.9 1.7 0.00 0.00 0.00 53 1021.6
20260503211849 82 143 0.9 1.7 0.00 0.00 0.00 52 1021.6
20260503211352 82 201 2.6 3.5 0.00 0.00 0.00 52 1021.7
20260503210848 82 241 1.7 4.3 0.00 0.00 0.00 54 1021.7
20260503210349 82 193 0.9 1.7 0.00 0.00 0.00 51 1022.0
20260503205849 81 162 0.0 0.0 0.00 0.00 0.00 53 1022.3
20260503205352 81 148 3.5 5.2 0.00 0.00 0.00 53 1022.5
20260503204849 81 140 0.9 2.6 0.00 0.00 0.00 52 1022.4
20260503204352 81 151 1.7 3.5 0.00 0.00 0.00 53 1022.7
20260503203849 80 140 1.7 2.6 0.00 0.00 0.00 54 1022.6
20260503203349 81 129 0.0 0.0 0.00 0.00 0.00 52 1023.0
20260503202849 81 70 0.0 0.0 0.00 0.00 0.00 53 1022.8
20260503202352 81 169 0.0 0.0 0.00 0.00 0.00 54 1023.2
20260503201849 81 83 0.9 1.7 0.00 0.00 0.00 54 1023.3
20260503201352 80 277 3.5 7.8 0.00 0.00 0.00 54 1023.3
20260503200849 80 180 0.0 0.0 0.00 0.00 0.00 55 1023.3
20260503200349 80 166 5.2 7.8 0.00 0.00 0.00 55 1023.4
20260503195849 80 171 1.7 2.6 0.00 0.00 0.00 54 1023.5
20260503195352 79 156 0.9 1.7 0.00 0.00 0.00 54 1023.6
20260503194848 80 173 0.9 1.7 0.00 0.00 0.00 55 1023.5
20260503194352 80 203 0.0 0.0 0.00 0.00 0.00 55 1023.5
20260503193848 80 184 1.7 1.7 0.00 0.00 0.00 55 1023.8
20260503193349 80 124 4.3 5.2 0.00 0.00 0.00 55 1023.8
20260503192849 80 179 0.0 0.0 0.00 0.00 0.00 54 1023.6
20260503192353 80 90 1.7 2.6 0.00 0.00 0.00 53 1023.7
20260503191849 79 180 0.9 1.7 0.00 0.00 0.00 55 1023.9
20260503191353 79 145 0.9 1.7 0.00 0.00 0.00 54 1023.8
20260503190849 80 42 1.7 2.6 0.00 0.00 0.00 53 1024.1
20260503190349 80 169 0.9 1.7 0.00 0.00 0.00 55 1024.1
20260503185849 79 209 1.7 3.5 0.00 0.00 0.00 55 1024.2
20260503185352 81 208 1.7 2.6 0.00 0.00 0.00 53 1024.2
20260503184849 80 97 0.0 0.0 0.00 0.00 0.00 53 1024.5
20260503184352 80 134 0.0 0.0 0.00 0.00 0.00 55 1024.6
20260503183849 79 145 0.9 2.6 0.00 0.00 0.00 56 1024.6
20260503183348 79 155 0.9 1.7 0.00 0.00 0.00 54 1024.7
20260503182849 78 120 0.9 1.7 0.00 0.00 0.00 55 1025.0
20260503182352 79 108 3.5 4.3 0.00 0.00 0.00 55 1024.9
20260503181849 79 105 2.6 4.3 0.00 0.00 0.00 55 1025.2
20260503181352 78 166 2.6 3.5 0.00 0.00 0.00 57 1025.1
20260503180849 78 166 3.5 4.3 0.00 0.00 0.00 56 1025.5
20260503180349 78 156 1.7 2.6 0.00 0.00 0.00 58 1025.6
20260503175849 78 159 0.9 1.7 0.00 0.00 0.00 58 1025.6
20260503175352 78 113 0.9 1.7 0.00 0.00 0.00 56 1025.7
20260503174849 76 145 0.0 0.0 0.00 0.00 0.00 59 1025.9
20260503174352 77 98 0.0 0.0 0.00 0.00 0.00 59 1025.8
20260503173849 77 130 0.0 0.0 0.00 0.00 0.00 59 1025.9
20260503173349 76 209 1.7 2.6 0.00 0.00 0.00 58 1025.9
20260503172849 77 136 6.1 7.8 0.00 0.00 0.00 58 1026.1
20260503172352 76 136 0.0 0.0 0.00 0.00 0.00 61 1026.3
20260503171849 76 160 4.3 6.1 0.00 0.00 0.00 59 1026.4
20260503171352 77 153 1.7 2.6 0.00 0.00 0.00 59 1026.3
20260503170848 76 198 0.9 1.7 0.00 0.00 0.00 58 1026.7
20260503170349 75 117 0.0 0.0 0.00 0.00 0.00 60 1026.4
20260503150849 72 138 0.0 0.0 0.00 0.00 0.00 68 1026.9
20260503150349 71 149 0.9 1.7 0.00 0.00 0.00 71 1027.2
20260503131352 63 96 0.0 0.0 0.00 0.00 0.00 81 1026.3
20260503130849 62 122 0.0 0.0 0.00 0.00 0.00 83 1026.3
20260503130349 60 122 0.0 0.0 0.00 0.00 0.00 86 1026.2
20260503110348 59 153 0.0 0.0 0.00 0.00 0.00 83 1025.3
20260503090349 59 155 0.0 0.0 0.00 0.00 0.00 81 1025.6
20260503081352 59 155 0.0 0.0 0.00 0.00 0.00 83 1025.5
20260503080849 59 155 0.0 0.0 0.00 0.00 0.00 83 1025.4
20260503080349 59 155 0.0 0.0 0.00 0.00 0.00 82 1025.5
20260503072849 60 155 0.0 0.0 0.00 0.00 0.00 81 1025.6
20260503072353 60 155 0.0 0.0 0.00 0.00 0.00 81 1025.7
20260503071849 60 155 0.0 0.0 0.00 0.00 0.00 81 1025.6
20260503071352 60 155 0.0 0.0 0.00 0.00 0.00 81 1025.6
20260503070851 60 155 0.0 0.0 0.00 0.00 0.00 81
20260503070849 60 155 0.0 0.0 0.00 0.00 0.00 81 1025.4
20260503070348 60 153 0.0 0.0 0.00 0.00 0.00 81 1025.2
20260503054849 62 153 0.0 0.0 0.00 0.00 0.00 79 1026.2
20260503054352 62 153 0.0 0.0 0.00 0.00 0.00 79 1026.2
20260503053848 62 153 0.0 0.0 0.00 0.00 0.00 79 1026.1
20260503053349 62 152 0.0 0.0 0.00 0.00 0.00 79 1026.1
20260503052848 62 152 0.0 0.0 0.00 0.00 0.00 79 1026.1
20260503052352 62 152 0.0 0.0 0.00 0.00 0.00 79 1026.0
20260503051848 63 152 0.0 0.0 0.00 0.00 0.00 79 1025.9
20260503051352 63 152 0.0 0.0 0.00 0.00 0.00 79 1025.9
20260503050849 63 152 0.0 0.0 0.00 0.00 0.00 79 1025.8
20260503050349 63 152 0.0 0.0 0.00 0.00 0.00 79 1025.9
20260503045849 63 152 0.0 0.0 0.00 0.00 0.00 78 1025.8
20260503045352 63 152 0.0 0.0 0.00 0.00 0.00 78 1025.8
20260503044849 63 152 0.0 0.0 0.00 0.00 0.00 78 1025.8
20260503044352 63 152 0.0 0.0 0.00 0.00 0.00 78 1026.2
20260503043849 63 152 0.0 0.0 0.00 0.00 0.00 78 1026.1
20260503043349 64 151 0.0 0.0 0.00 0.00 0.00 78 1026.0
20260503042849 64 150 0.0 0.0 0.00 0.00 0.00 78 1026.2
20260503042352 64 150 0.0 0.0 0.00 0.00 0.00 78 1025.9
20260503041848 64 150 0.0 0.0 0.00 0.00 0.00 77 1026.0
20260503041352 64 150 0.0 0.0 0.00 0.00 0.00 77 1025.9
20260503040848 64 150 0.0 0.0 0.00 0.00 0.00 77 1026.2
20260503040349 64 150 0.0 0.0 0.00 0.00 0.00 77 1025.8
20260503035848 64 150 0.0 0.0 0.00 0.00 0.00 76 1025.9
20260503035352 64 147 0.0 0.0 0.00 0.00 0.00 76 1025.8
20260503034848 64 145 0.0 0.0 0.00 0.00 0.00 76 1025.9
20260503034353 65 144 0.0 0.0 0.00 0.00 0.00 75 1025.8
20260503033849 65 144 0.0 0.0 0.00 0.00 0.00 74 1025.9
20260503033349 65 144 0.0 0.0 0.00 0.00 0.00 74 1026.0
20260503032849 66 143 0.0 0.0 0.00 0.00 0.00 73 1025.7
20260503032353 66 114 0.0 0.0 0.00 0.00 0.00 72 1025.5
20260503031849 66 72 1.7 3.5 0.00 0.00 0.00 72 1025.5
20260503031353 66 148 0.0 0.0 0.00 0.00 0.00 72 1025.5
20260503030849 67 149 0.0 0.0 0.00 0.00 0.00 71 1025.4
20260503030348 67 150 0.0 0.0 0.00 0.00 0.00 71 1025.5
20260503025849 67 152 0.0 0.0 0.00 0.00 0.00 70 1025.4
20260503025352 67 146 0.0 0.0 0.00 0.00 0.00 70 1025.3
20260503024849 67 145 0.0 0.0 0.00 0.00 0.00 70 1025.1
20260503024353 68 141 0.0 0.0 0.00 0.00 0.00 69 1025.0
20260503023849 68 141 0.0 0.0 0.00 0.00 0.00 70 1025.0
20260503023349 68 139 0.0 0.0 0.00 0.00 0.00 69 1025.2
20260503022849 68 152 0.0 0.0 0.00 0.00 0.00 69 1025.1
20260503022352 68 170 0.0 0.0 0.00 0.00 0.00 68 1025.0
20260503021849 68 144 0.0 0.0 0.00 0.00 0.00 69 1025.1
20260503021352 68 143 0.0 0.0 0.00 0.00 0.00 68 1024.9
20260503020849 68 143 0.0 0.0 0.00 0.00 0.00 68 1025.0
20260503020349 69 143 0.0 0.0 0.00 0.00 0.00 68 1024.9
20260503015849 69 144 0.0 0.0 0.00 0.00 0.00 67 1024.9
20260503015352 70 144 0.0 0.0 0.00 0.00 0.00 66 1025.1
20260503014849 70 141 0.0 0.0 0.00 0.00 0.00 65 1024.9
20260503014352 70 143 0.0 0.0 0.00 0.00 0.00 64 1024.8
20260503013848 70 141 0.0 0.0 0.00 0.00 0.00 63 1024.8
20260503013349 70 139 0.0 0.0 0.00 0.00 0.00 63 1024.5
20260503012848 71 139 0.0 0.0 0.00 0.00 0.00 62 1024.3
20260503012353 71 139 0.0 0.0 0.00 0.00 0.00 62 1024.2
20260503011849 71 137 0.0 0.0 0.00 0.00 0.00 61 1024.2
20260503011353 72 121 0.0 0.0 0.00 0.00 0.00 60 1024.2
20260503010849 72 138 0.0 0.0 0.00 0.00 0.00 59 1024.1
20260503010349 72 134 0.0 0.0 0.00 0.00 0.00 58 1024.0
20260503005849 72 126 0.0 0.0 0.00 0.00 0.00 57 1023.8
20260503005353 73 90 0.9 1.7 0.00 0.00 0.00 56 1023.9
20260503004849 73 103 0.0 0.0 0.00 0.00 0.00 55 1023.8
20260503004353 73 87 1.7 2.6 0.00 0.00 0.00 55 1024.0
20260503003849 73 149 0.0 0.0 0.00 0.00 0.00 56 1023.6